Index of /20260420/WXO-DD/model_rdps/10km/12/030
Name Last modified Size Description
Parent Directory -
20260420T12Z_MSC_RDPS_AbsoluteVorticity_IsbL-0250_RLatLon0.09_PT030H.grib2 2026-04-20 14:51 603K
20260420T12Z_MSC_RDPS_AbsoluteVorticity_IsbL-0500_RLatLon0.09_PT030H.grib2 2026-04-20 14:51 689K
20260420T12Z_MSC_RDPS_AbsoluteVorticity_IsbL-0700_RLatLon0.09_PT030H.grib2 2026-04-20 14:51 626K
20260420T12Z_MSC_RDPS_AbsoluteVorticity_IsbL-0850_RLatLon0.09_PT030H.grib2 2026-04-20 14:51 795K
20260420T12Z_MSC_RDPS_AirTemp_AGL-120m_RLatLon0.09_PT030H.grib2 2026-04-20 14:51 388K
20260420T12Z_MSC_RDPS_AirTemp_AGL-2m_RLatLon0.09_PT030H.grib2 2026-04-20 14:51 647K
20260420T12Z_MSC_RDPS_AirTemp_AGL-40m_RLatLon0.09_PT030H.grib2 2026-04-20 14:51 399K
20260420T12Z_MSC_RDPS_AirTemp_AGL-80m_RLatLon0.09_PT030H.grib2 2026-04-20 14:51 394K
20260420T12Z_MSC_RDPS_AirTemp_IsbL-0001_RLatLon0.09_PT030H.grib2 2026-04-20 14:51 278K
20260420T12Z_MSC_RDPS_AirTemp_IsbL-0005_RLatLon0.09_PT030H.grib2 2026-04-20 14:51 333K
20260420T12Z_MSC_RDPS_AirTemp_IsbL-0010_RLatLon0.09_PT030H.grib2 2026-04-20 14:51 306K
20260420T12Z_MSC_RDPS_AirTemp_IsbL-0020_RLatLon0.09_PT030H.grib2 2026-04-20 14:51 329K
20260420T12Z_MSC_RDPS_AirTemp_IsbL-0030_RLatLon0.09_PT030H.grib2 2026-04-20 14:51 351K
20260420T12Z_MSC_RDPS_AirTemp_IsbL-0050_RLatLon0.09_PT030H.grib2 2026-04-20 14:51 332K
20260420T12Z_MSC_RDPS_AirTemp_IsbL-0100_RLatLon0.09_PT030H.grib2 2026-04-20 14:51 437K
20260420T12Z_MSC_RDPS_AirTemp_IsbL-0150_RLatLon0.09_PT030H.grib2 2026-04-20 14:51 427K
20260420T12Z_MSC_RDPS_AirTemp_IsbL-0175_RLatLon0.09_PT030H.grib2 2026-04-20 14:51 423K
20260420T12Z_MSC_RDPS_AirTemp_IsbL-0200_RLatLon0.09_PT030H.grib2 2026-04-20 14:51 424K
20260420T12Z_MSC_RDPS_AirTemp_IsbL-0225_RLatLon0.09_PT030H.grib2 2026-04-20 14:51 419K
20260420T12Z_MSC_RDPS_AirTemp_IsbL-0250_RLatLon0.09_PT030H.grib2 2026-04-20 14:51 419K
20260420T12Z_MSC_RDPS_AirTemp_IsbL-0275_RLatLon0.09_PT030H.grib2 2026-04-20 14:51 398K
20260420T12Z_MSC_RDPS_AirTemp_IsbL-0300_RLatLon0.09_PT030H.grib2 2026-04-20 14:51 404K
20260420T12Z_MSC_RDPS_AirTemp_IsbL-0350_RLatLon0.09_PT030H.grib2 2026-04-20 14:51 420K
20260420T12Z_MSC_RDPS_AirTemp_IsbL-0400_RLatLon0.09_PT030H.grib2 2026-04-20 14:51 425K
20260420T12Z_MSC_RDPS_AirTemp_IsbL-0450_RLatLon0.09_PT030H.grib2 2026-04-20 14:51 401K
20260420T12Z_MSC_RDPS_AirTemp_IsbL-0500_RLatLon0.09_PT030H.grib2 2026-04-20 14:51 414K
20260420T12Z_MSC_RDPS_AirTemp_IsbL-0550_RLatLon0.09_PT030H.grib2 2026-04-20 14:51 434K
20260420T12Z_MSC_RDPS_AirTemp_IsbL-0600_RLatLon0.09_PT030H.grib2 2026-04-20 14:51 451K
20260420T12Z_MSC_RDPS_AirTemp_IsbL-0650_RLatLon0.09_PT030H.grib2 2026-04-20 14:51 467K
20260420T12Z_MSC_RDPS_AirTemp_IsbL-0700_RLatLon0.09_PT030H.grib2 2026-04-20 14:51 492K
20260420T12Z_MSC_RDPS_AirTemp_IsbL-0750_RLatLon0.09_PT030H.grib2 2026-04-20 14:51 536K
20260420T12Z_MSC_RDPS_AirTemp_IsbL-0800_RLatLon0.09_PT030H.grib2 2026-04-20 14:51 473K
20260420T12Z_MSC_RDPS_AirTemp_IsbL-0850_RLatLon0.09_PT030H.grib2 2026-04-20 14:51 519K
20260420T12Z_MSC_RDPS_AirTemp_IsbL-0875_RLatLon0.09_PT030H.grib2 2026-04-20 14:51 528K
20260420T12Z_MSC_RDPS_AirTemp_IsbL-0900_RLatLon0.09_PT030H.grib2 2026-04-20 14:51 532K
20260420T12Z_MSC_RDPS_AirTemp_IsbL-0925_RLatLon0.09_PT030H.grib2 2026-04-20 14:51 530K
20260420T12Z_MSC_RDPS_AirTemp_IsbL-0950_RLatLon0.09_PT030H.grib2 2026-04-20 14:51 535K
20260420T12Z_MSC_RDPS_AirTemp_IsbL-0970_RLatLon0.09_PT030H.grib2 2026-04-20 14:51 538K
20260420T12Z_MSC_RDPS_AirTemp_IsbL-0985_RLatLon0.09_PT030H.grib2 2026-04-20 14:51 532K
20260420T12Z_MSC_RDPS_AirTemp_IsbL-1000_RLatLon0.09_PT030H.grib2 2026-04-20 14:51 518K
20260420T12Z_MSC_RDPS_AirTemp_IsbL-1015_RLatLon0.09_PT030H.grib2 2026-04-20 14:51 524K
20260420T12Z_MSC_RDPS_Albedo_Sfc_RLatLon0.09_PT030H.grib2 2026-04-20 14:51 164K
20260420T12Z_MSC_RDPS_CAPE_Sfc_RLatLon0.09_PT030H.grib2 2026-04-20 14:51 1.7M
20260420T12Z_MSC_RDPS_CIN_Sfc_RLatLon0.09_PT030H.grib2 2026-04-20 14:51 1.1M
20260420T12Z_MSC_RDPS_CloudWater_EAtm_RLatLon0.09_PT030H.grib2 2026-04-20 14:51 216K
20260420T12Z_MSC_RDPS_ConvectivePrecip-Accum_Sfc_RLatLon0.09_PT030H.grib2 2026-04-20 14:51 961K
20260420T12Z_MSC_RDPS_DewPointDepression_AGL-2m_RLatLon0.09_PT030H.grib2 2026-04-20 14:51 422K
20260420T12Z_MSC_RDPS_DewPointDepression_IsbL-0001_RLatLon0.09_PT030H.grib2 2026-04-20 14:51 193
20260420T12Z_MSC_RDPS_DewPointDepression_IsbL-0005_RLatLon0.09_PT030H.grib2 2026-04-20 14:51 193
20260420T12Z_MSC_RDPS_DewPointDepression_IsbL-0010_RLatLon0.09_PT030H.grib2 2026-04-20 14:51 193
20260420T12Z_MSC_RDPS_DewPointDepression_IsbL-0020_RLatLon0.09_PT030H.grib2 2026-04-20 14:51 193
20260420T12Z_MSC_RDPS_DewPointDepression_IsbL-0030_RLatLon0.09_PT030H.grib2 2026-04-20 14:51 193
20260420T12Z_MSC_RDPS_DewPointDepression_IsbL-0050_RLatLon0.09_PT030H.grib2 2026-04-20 14:51 96K
20260420T12Z_MSC_RDPS_DewPointDepression_IsbL-0100_RLatLon0.09_PT030H.grib2 2026-04-20 14:51 126K
20260420T12Z_MSC_RDPS_DewPointDepression_IsbL-0150_RLatLon0.09_PT030H.grib2 2026-04-20 14:51 152K
20260420T12Z_MSC_RDPS_DewPointDepression_IsbL-0175_RLatLon0.09_PT030H.grib2 2026-04-20 14:51 192K
20260420T12Z_MSC_RDPS_DewPointDepression_IsbL-0200_RLatLon0.09_PT030H.grib2 2026-04-20 14:51 233K
20260420T12Z_MSC_RDPS_DewPointDepression_IsbL-0225_RLatLon0.09_PT030H.grib2 2026-04-20 14:51 262K
20260420T12Z_MSC_RDPS_DewPointDepression_IsbL-0250_RLatLon0.09_PT030H.grib2 2026-04-20 14:51 297K
20260420T12Z_MSC_RDPS_DewPointDepression_IsbL-0275_RLatLon0.09_PT030H.grib2 2026-04-20 14:51 306K
20260420T12Z_MSC_RDPS_DewPointDepression_IsbL-0300_RLatLon0.09_PT030H.grib2 2026-04-20 14:51 328K
20260420T12Z_MSC_RDPS_DewPointDepression_IsbL-0350_RLatLon0.09_PT030H.grib2 2026-04-20 14:51 335K
20260420T12Z_MSC_RDPS_DewPointDepression_IsbL-0400_RLatLon0.09_PT030H.grib2 2026-04-20 14:51 352K
20260420T12Z_MSC_RDPS_DewPointDepression_IsbL-0450_RLatLon0.09_PT030H.grib2 2026-04-20 14:51 360K
20260420T12Z_MSC_RDPS_DewPointDepression_IsbL-0500_RLatLon0.09_PT030H.grib2 2026-04-20 14:51 372K
20260420T12Z_MSC_RDPS_DewPointDepression_IsbL-0550_RLatLon0.09_PT030H.grib2 2026-04-20 14:51 391K
20260420T12Z_MSC_RDPS_DewPointDepression_IsbL-0600_RLatLon0.09_PT030H.grib2 2026-04-20 14:51 401K
20260420T12Z_MSC_RDPS_DewPointDepression_IsbL-0650_RLatLon0.09_PT030H.grib2 2026-04-20 14:51 396K
20260420T12Z_MSC_RDPS_DewPointDepression_IsbL-0700_RLatLon0.09_PT030H.grib2 2026-04-20 14:51 400K
20260420T12Z_MSC_RDPS_DewPointDepression_IsbL-0750_RLatLon0.09_PT030H.grib2 2026-04-20 14:51 422K
20260420T12Z_MSC_RDPS_DewPointDepression_IsbL-0800_RLatLon0.09_PT030H.grib2 2026-04-20 14:51 458K
20260420T12Z_MSC_RDPS_DewPointDepression_IsbL-0850_RLatLon0.09_PT030H.grib2 2026-04-20 14:51 483K
20260420T12Z_MSC_RDPS_DewPointDepression_IsbL-0875_RLatLon0.09_PT030H.grib2 2026-04-20 14:51 473K
20260420T12Z_MSC_RDPS_DewPointDepression_IsbL-0900_RLatLon0.09_PT030H.grib2 2026-04-20 14:51 462K
20260420T12Z_MSC_RDPS_DewPointDepression_IsbL-0925_RLatLon0.09_PT030H.grib2 2026-04-20 14:51 450K
20260420T12Z_MSC_RDPS_DewPointDepression_IsbL-0950_RLatLon0.09_PT030H.grib2 2026-04-20 14:51 447K
20260420T12Z_MSC_RDPS_DewPointDepression_IsbL-0970_RLatLon0.09_PT030H.grib2 2026-04-20 14:51 445K
20260420T12Z_MSC_RDPS_DewPointDepression_IsbL-0985_RLatLon0.09_PT030H.grib2 2026-04-20 14:51 441K
20260420T12Z_MSC_RDPS_DewPointDepression_IsbL-1000_RLatLon0.09_PT030H.grib2 2026-04-20 14:51 436K
20260420T12Z_MSC_RDPS_DewPointDepression_IsbL-1015_RLatLon0.09_PT030H.grib2 2026-04-20 14:51 427K
20260420T12Z_MSC_RDPS_DewPoint_AGL-2m_RLatLon0.09_PT030H.grib2 2026-04-20 14:51 409K
20260420T12Z_MSC_RDPS_DownwardLongwaveRadiationFlux-Accum_Sfc_RLatLon0.09_PT030H.grib2 2026-04-20 14:51 454K
20260420T12Z_MSC_RDPS_DownwardShortwaveRadiationFlux-Accum_NTAtm_RLatLon0.09_PT030H.grib2 2026-04-20 14:51 93K
20260420T12Z_MSC_RDPS_DownwardShortwaveRadiationFlux-Accum_Sfc_RLatLon0.09_PT030H.grib2 2026-04-20 14:51 527K
20260420T12Z_MSC_RDPS_FreezingRain-Accum12h_Sfc_RLatLon0.09_PT030H.grib2 2026-04-20 14:51 41K
20260420T12Z_MSC_RDPS_FreezingRain-Accum1h_Sfc_RLatLon0.09_PT030H.grib2 2026-04-20 14:51 12K
20260420T12Z_MSC_RDPS_FreezingRain-Accum24h_Sfc_RLatLon0.09_PT030H.grib2 2026-04-20 14:51 61K
20260420T12Z_MSC_RDPS_FreezingRain-Accum3h_Sfc_RLatLon0.09_PT030H.grib2 2026-04-20 14:51 15K
20260420T12Z_MSC_RDPS_FreezingRain-Accum6h_Sfc_RLatLon0.09_PT030H.grib2 2026-04-20 14:51 28K
20260420T12Z_MSC_RDPS_FreezingRain-Accum_Sfc_RLatLon0.09_PT030H.grib2 2026-04-20 14:51 81K
20260420T12Z_MSC_RDPS_GeopotentialHeight_IsbL-0001_RLatLon0.09_PT030H.grib2 2026-04-20 14:51 279K
20260420T12Z_MSC_RDPS_GeopotentialHeight_IsbL-0005_RLatLon0.09_PT030H.grib2 2026-04-20 14:51 241K
20260420T12Z_MSC_RDPS_GeopotentialHeight_IsbL-0010_RLatLon0.09_PT030H.grib2 2026-04-20 14:51 317K
20260420T12Z_MSC_RDPS_GeopotentialHeight_IsbL-0020_RLatLon0.09_PT030H.grib2 2026-04-20 14:51 314K
20260420T12Z_MSC_RDPS_GeopotentialHeight_IsbL-0030_RLatLon0.09_PT030H.grib2 2026-04-20 14:51 316K
20260420T12Z_MSC_RDPS_GeopotentialHeight_IsbL-0050_RLatLon0.09_PT030H.grib2 2026-04-20 14:51 349K
20260420T12Z_MSC_RDPS_GeopotentialHeight_IsbL-0100_RLatLon0.09_PT030H.grib2 2026-04-20 14:51 293K
20260420T12Z_MSC_RDPS_GeopotentialHeight_IsbL-0150_RLatLon0.09_PT030H.grib2 2026-04-20 14:51 233K
20260420T12Z_MSC_RDPS_GeopotentialHeight_IsbL-0175_RLatLon0.09_PT030H.grib2 2026-04-20 14:51 267K
20260420T12Z_MSC_RDPS_GeopotentialHeight_IsbL-0200_RLatLon0.09_PT030H.grib2 2026-04-20 14:51 269K
20260420T12Z_MSC_RDPS_GeopotentialHeight_IsbL-0225_RLatLon0.09_PT030H.grib2 2026-04-20 14:51 270K
20260420T12Z_MSC_RDPS_GeopotentialHeight_IsbL-0250_RLatLon0.09_PT030H.grib2 2026-04-20 14:51 271K
20260420T12Z_MSC_RDPS_GeopotentialHeight_IsbL-0275_RLatLon0.09_PT030H.grib2 2026-04-20 14:51 269K
20260420T12Z_MSC_RDPS_GeopotentialHeight_IsbL-0300_RLatLon0.09_PT030H.grib2 2026-04-20 14:51 267K
20260420T12Z_MSC_RDPS_GeopotentialHeight_IsbL-0350_RLatLon0.09_PT030H.grib2 2026-04-20 14:51 234K
20260420T12Z_MSC_RDPS_GeopotentialHeight_IsbL-0400_RLatLon0.09_PT030H.grib2 2026-04-20 14:51 232K
20260420T12Z_MSC_RDPS_GeopotentialHeight_IsbL-0450_RLatLon0.09_PT030H.grib2 2026-04-20 14:51 303K
20260420T12Z_MSC_RDPS_GeopotentialHeight_IsbL-0500_RLatLon0.09_PT030H.grib2 2026-04-20 14:51 298K
20260420T12Z_MSC_RDPS_GeopotentialHeight_IsbL-0550_RLatLon0.09_PT030H.grib2 2026-04-20 14:51 294K
20260420T12Z_MSC_RDPS_GeopotentialHeight_IsbL-0600_RLatLon0.09_PT030H.grib2 2026-04-20 14:51 289K
20260420T12Z_MSC_RDPS_GeopotentialHeight_IsbL-0650_RLatLon0.09_PT030H.grib2 2026-04-20 14:51 260K
20260420T12Z_MSC_RDPS_GeopotentialHeight_IsbL-0700_RLatLon0.09_PT030H.grib2 2026-04-20 14:51 259K
20260420T12Z_MSC_RDPS_GeopotentialHeight_IsbL-0750_RLatLon0.09_PT030H.grib2 2026-04-20 14:51 261K
20260420T12Z_MSC_RDPS_GeopotentialHeight_IsbL-0800_RLatLon0.09_PT030H.grib2 2026-04-20 14:51 268K
20260420T12Z_MSC_RDPS_GeopotentialHeight_IsbL-0850_RLatLon0.09_PT030H.grib2 2026-04-20 14:51 362K
20260420T12Z_MSC_RDPS_GeopotentialHeight_IsbL-0875_RLatLon0.09_PT030H.grib2 2026-04-20 14:51 365K
20260420T12Z_MSC_RDPS_GeopotentialHeight_IsbL-0900_RLatLon0.09_PT030H.grib2 2026-04-20 14:51 368K
20260420T12Z_MSC_RDPS_GeopotentialHeight_IsbL-0925_RLatLon0.09_PT030H.grib2 2026-04-20 14:51 372K
20260420T12Z_MSC_RDPS_GeopotentialHeight_IsbL-0950_RLatLon0.09_PT030H.grib2 2026-04-20 14:51 376K
20260420T12Z_MSC_RDPS_GeopotentialHeight_IsbL-0970_RLatLon0.09_PT030H.grib2 2026-04-20 14:51 383K
20260420T12Z_MSC_RDPS_GeopotentialHeight_IsbL-0985_RLatLon0.09_PT030H.grib2 2026-04-20 14:51 394K
20260420T12Z_MSC_RDPS_GeopotentialHeight_IsbL-1000_RLatLon0.09_PT030H.grib2 2026-04-20 14:51 408K
20260420T12Z_MSC_RDPS_GeopotentialHeight_IsbL-1015_RLatLon0.09_PT030H.grib2 2026-04-20 14:51 424K
20260420T12Z_MSC_RDPS_Humidex_Sfc_RLatLon0.09_PT030H.grib2 2026-04-20 14:51 2.4M
20260420T12Z_MSC_RDPS_IcePellets-Accum12h_Sfc_RLatLon0.09_PT030H.grib2 2026-04-20 14:51 9.6K
20260420T12Z_MSC_RDPS_IcePellets-Accum1h_Sfc_RLatLon0.09_PT030H.grib2 2026-04-20 14:51 6.8K
20260420T12Z_MSC_RDPS_IcePellets-Accum24h_Sfc_RLatLon0.09_PT030H.grib2 2026-04-20 14:51 11K
20260420T12Z_MSC_RDPS_IcePellets-Accum3h_Sfc_RLatLon0.09_PT030H.grib2 2026-04-20 14:51 6.6K
20260420T12Z_MSC_RDPS_IcePellets-Accum6h_Sfc_RLatLon0.09_PT030H.grib2 2026-04-20 14:51 7.8K
20260420T12Z_MSC_RDPS_IcePellets-Accum_Sfc_RLatLon0.09_PT030H.grib2 2026-04-20 14:51 17K
20260420T12Z_MSC_RDPS_KIndex_Sfc_RLatLon0.09_PT030H.grib2 2026-04-20 14:51 2.4M
20260420T12Z_MSC_RDPS_LatentHeatNetFlux_Sfc_RLatLon0.09_PT030H.grib2 2026-04-20 14:51 306K
20260420T12Z_MSC_RDPS_LiftedIndex-MU-VT_IsbL-0500_RLatLon0.09_PT030H.grib2 2026-04-20 14:51 2.4M
20260420T12Z_MSC_RDPS_NetLongwaveRadiationFlux-Accum_Sfc_RLatLon0.09_PT030H.grib2 2026-04-20 14:51 612K
20260420T12Z_MSC_RDPS_NetShortwaveRadiationFlux-Accum_Sfc_RLatLon0.09_PT030H.grib2 2026-04-20 14:51 542K
20260420T12Z_MSC_RDPS_PlanetaryBoundaryLayerHeight_Sfc_RLatLon0.09_PT030H.grib2 2026-04-20 14:51 1.0M
20260420T12Z_MSC_RDPS_Precip-Accum12h_Sfc_RLatLon0.09_PT030H.grib2 2026-04-20 14:51 1.6M
20260420T12Z_MSC_RDPS_Precip-Accum1h_Sfc_RLatLon0.09_PT030H.grib2 2026-04-20 14:51 1.3M
20260420T12Z_MSC_RDPS_Precip-Accum24h_Sfc_RLatLon0.09_PT030H.grib2 2026-04-20 14:51 1.7M
20260420T12Z_MSC_RDPS_Precip-Accum3h_Sfc_RLatLon0.09_PT030H.grib2 2026-04-20 14:51 1.3M
20260420T12Z_MSC_RDPS_Precip-Accum6h_Sfc_RLatLon0.09_PT030H.grib2 2026-04-20 14:51 1.5M
20260420T12Z_MSC_RDPS_Precip-Accum_Sfc_RLatLon0.09_PT030H.grib2 2026-04-20 14:51 1.7M
20260420T12Z_MSC_RDPS_PrecipRate_Sfc_RLatLon0.09_PT030H.grib2 2026-04-20 14:51 193K
20260420T12Z_MSC_RDPS_PrecipType-Instant_Sfc_RLatLon0.09_PT030H.grib2 2026-04-20 14:51 602K
20260420T12Z_MSC_RDPS_Pressure-Trend3h_Sfc_RLatLon0.09_PT030H.grib2 2026-04-20 14:51 1.2M
20260420T12Z_MSC_RDPS_Pressure_MSL_RLatLon0.09_PT030H.grib2 2026-04-20 14:51 304K
20260420T12Z_MSC_RDPS_Pressure_PVU-1.5_RLatLon0.09_PT030H.grib2 2026-04-20 14:51 2.3M
20260420T12Z_MSC_RDPS_Pressure_PVU-1_RLatLon0.09_PT030H.grib2 2026-04-20 14:51 2.4M
20260420T12Z_MSC_RDPS_Pressure_PVU-2_RLatLon0.09_PT030H.grib2 2026-04-20 14:51 2.4M
20260420T12Z_MSC_RDPS_Pressure_Sfc_RLatLon0.09_PT030H.grib2 2026-04-20 14:51 503K
20260420T12Z_MSC_RDPS_RadiativeTemp_Sfc_RLatLon0.09_PT030H.grib2 2026-04-20 14:51 335K
20260420T12Z_MSC_RDPS_Rain-Accum12h_Sfc_RLatLon0.09_PT030H.grib2 2026-04-20 14:51 1.1M
20260420T12Z_MSC_RDPS_Rain-Accum1h_Sfc_RLatLon0.09_PT030H.grib2 2026-04-20 14:51 660K
20260420T12Z_MSC_RDPS_Rain-Accum24h_Sfc_RLatLon0.09_PT030H.grib2 2026-04-20 14:51 1.4M
20260420T12Z_MSC_RDPS_Rain-Accum3h_Sfc_RLatLon0.09_PT030H.grib2 2026-04-20 14:51 801K
20260420T12Z_MSC_RDPS_Rain-Accum6h_Sfc_RLatLon0.09_PT030H.grib2 2026-04-20 14:51 1.0M
20260420T12Z_MSC_RDPS_Rain-Accum_Sfc_RLatLon0.09_PT030H.grib2 2026-04-20 14:51 1.5M
20260420T12Z_MSC_RDPS_RelativeHumidity_AGL-2m_RLatLon0.09_PT030H.grib2 2026-04-20 14:51 1.0M
20260420T12Z_MSC_RDPS_RelativeHumidity_IsbL-0010_RLatLon0.09_PT030H.grib2 2026-04-20 14:51 631K
20260420T12Z_MSC_RDPS_RelativeHumidity_IsbL-0020_RLatLon0.09_PT030H.grib2 2026-04-20 14:51 574K
20260420T12Z_MSC_RDPS_RelativeHumidity_IsbL-0030_RLatLon0.09_PT030H.grib2 2026-04-20 14:51 549K
20260420T12Z_MSC_RDPS_RelativeHumidity_IsbL-0050_RLatLon0.09_PT030H.grib2 2026-04-20 14:51 338K
20260420T12Z_MSC_RDPS_RelativeHumidity_IsbL-0100_RLatLon0.09_PT030H.grib2 2026-04-20 14:51 271K
20260420T12Z_MSC_RDPS_RelativeHumidity_IsbL-0150_RLatLon0.09_PT030H.grib2 2026-04-20 14:51 376K
20260420T12Z_MSC_RDPS_RelativeHumidity_IsbL-0175_RLatLon0.09_PT030H.grib2 2026-04-20 14:51 471K
20260420T12Z_MSC_RDPS_RelativeHumidity_IsbL-0200_RLatLon0.09_PT030H.grib2 2026-04-20 14:51 565K
20260420T12Z_MSC_RDPS_RelativeHumidity_IsbL-0225_RLatLon0.09_PT030H.grib2 2026-04-20 14:51 637K
20260420T12Z_MSC_RDPS_RelativeHumidity_IsbL-0250_RLatLon0.09_PT030H.grib2 2026-04-20 14:51 695K
20260420T12Z_MSC_RDPS_RelativeHumidity_IsbL-0275_RLatLon0.09_PT030H.grib2 2026-04-20 14:51 709K
20260420T12Z_MSC_RDPS_RelativeHumidity_IsbL-0300_RLatLon0.09_PT030H.grib2 2026-04-20 14:51 749K
20260420T12Z_MSC_RDPS_RelativeHumidity_IsbL-0350_RLatLon0.09_PT030H.grib2 2026-04-20 14:51 768K
20260420T12Z_MSC_RDPS_RelativeHumidity_IsbL-0400_RLatLon0.09_PT030H.grib2 2026-04-20 14:51 793K
20260420T12Z_MSC_RDPS_RelativeHumidity_IsbL-0450_RLatLon0.09_PT030H.grib2 2026-04-20 14:51 804K
20260420T12Z_MSC_RDPS_RelativeHumidity_IsbL-0500_RLatLon0.09_PT030H.grib2 2026-04-20 14:51 831K
20260420T12Z_MSC_RDPS_RelativeHumidity_IsbL-0550_RLatLon0.09_PT030H.grib2 2026-04-20 14:51 857K
20260420T12Z_MSC_RDPS_RelativeHumidity_IsbL-0600_RLatLon0.09_PT030H.grib2 2026-04-20 14:51 876K
20260420T12Z_MSC_RDPS_RelativeHumidity_IsbL-0650_RLatLon0.09_PT030H.grib2 2026-04-20 14:51 867K
20260420T12Z_MSC_RDPS_RelativeHumidity_IsbL-0700_RLatLon0.09_PT030H.grib2 2026-04-20 14:51 888K
20260420T12Z_MSC_RDPS_RelativeHumidity_IsbL-0750_RLatLon0.09_PT030H.grib2 2026-04-20 14:51 928K
20260420T12Z_MSC_RDPS_RelativeHumidity_IsbL-0800_RLatLon0.09_PT030H.grib2 2026-04-20 14:51 1.0M
20260420T12Z_MSC_RDPS_RelativeHumidity_IsbL-0850_RLatLon0.09_PT030H.grib2 2026-04-20 14:51 1.0M
20260420T12Z_MSC_RDPS_RelativeHumidity_IsbL-0875_RLatLon0.09_PT030H.grib2 2026-04-20 14:51 1.1M
20260420T12Z_MSC_RDPS_RelativeHumidity_IsbL-0900_RLatLon0.09_PT030H.grib2 2026-04-20 14:51 1.1M
20260420T12Z_MSC_RDPS_RelativeHumidity_IsbL-0925_RLatLon0.09_PT030H.grib2 2026-04-20 14:51 1.1M
20260420T12Z_MSC_RDPS_RelativeHumidity_IsbL-0950_RLatLon0.09_PT030H.grib2 2026-04-20 14:51 1.1M
20260420T12Z_MSC_RDPS_RelativeHumidity_IsbL-0970_RLatLon0.09_PT030H.grib2 2026-04-20 14:51 1.1M
20260420T12Z_MSC_RDPS_RelativeHumidity_IsbL-0985_RLatLon0.09_PT030H.grib2 2026-04-20 14:51 1.0M
20260420T12Z_MSC_RDPS_RelativeHumidity_IsbL-1000_RLatLon0.09_PT030H.grib2 2026-04-20 14:51 1.0M
20260420T12Z_MSC_RDPS_RelativeHumidity_IsbL-1015_RLatLon0.09_PT030H.grib2 2026-04-20 14:51 1.0M
20260420T12Z_MSC_RDPS_Runoff-Accum_Sfc_RLatLon0.09_PT030H.grib2 2026-04-20 14:51 41K
20260420T12Z_MSC_RDPS_SWEATIndex_Sfc_RLatLon0.09_PT030H.grib2 2026-04-20 14:51 2.4M
20260420T12Z_MSC_RDPS_SeeingIndex_EAtm_RLatLon0.09_PT030H.grib2 2026-04-20 14:51 1.0M
20260420T12Z_MSC_RDPS_SensibleHeatNetFlux_Sfc_RLatLon0.09_PT030H.grib2 2026-04-20 14:51 379K
20260420T12Z_MSC_RDPS_ShowalterIndex_IsbL-0500_RLatLon0.09_PT030H.grib2 2026-04-20 14:51 2.6M
20260420T12Z_MSC_RDPS_SkyTransparencyIndex_EAtm_RLatLon0.09_PT030H.grib2 2026-04-20 14:51 737K
20260420T12Z_MSC_RDPS_Snow-Accum12h_Sfc_RLatLon0.09_PT030H.grib2 2026-04-20 14:51 449K
20260420T12Z_MSC_RDPS_Snow-Accum1h_Sfc_RLatLon0.09_PT030H.grib2 2026-04-20 14:51 252K
20260420T12Z_MSC_RDPS_Snow-Accum24h_Sfc_RLatLon0.09_PT030H.grib2 2026-04-20 14:51 506K
20260420T12Z_MSC_RDPS_Snow-Accum3h_Sfc_RLatLon0.09_PT030H.grib2 2026-04-20 14:51 265K
20260420T12Z_MSC_RDPS_Snow-Accum6h_Sfc_RLatLon0.09_PT030H.grib2 2026-04-20 14:51 447K
20260420T12Z_MSC_RDPS_Snow-Accum_Sfc_RLatLon0.09_PT030H.grib2 2026-04-20 14:51 575K
20260420T12Z_MSC_RDPS_SnowDensity_Sfc_RLatLon0.09_PT030H.grib2 2026-04-20 14:51 172K
20260420T12Z_MSC_RDPS_SnowDepth_Sfc_RLatLon0.09_PT030H.grib2 2026-04-20 14:51 703K
20260420T12Z_MSC_RDPS_SoilTemp_DBS-0to10cm_RLatLon0.09_PT030H.grib2 2026-04-20 14:51 231K
20260420T12Z_MSC_RDPS_SoilTemp_Sfc_RLatLon0.09_PT030H.grib2 2026-04-20 14:51 302K
20260420T12Z_MSC_RDPS_SoilVolumetricIceContent_Sfc_RLatLon0.09_PT030H.grib2 2026-04-20 14:51 171K
20260420T12Z_MSC_RDPS_SoilVolumetricWaterContent_DBS-0to10cm_RLatLon0.09_PT030H.grib2 2026-04-20 14:51 250K
20260420T12Z_MSC_RDPS_SoilVolumetricWaterContent_DBS-0to1cm_RLatLon0.09_PT030H.grib2 2026-04-20 14:51 337K
20260420T12Z_MSC_RDPS_SpecificHumidity_AGL-120m_RLatLon0.09_PT030H.grib2 2026-04-20 14:51 489K
20260420T12Z_MSC_RDPS_SpecificHumidity_AGL-2m_RLatLon0.09_PT030H.grib2 2026-04-20 14:51 657K
20260420T12Z_MSC_RDPS_SpecificHumidity_AGL-40m_RLatLon0.09_PT030H.grib2 2026-04-20 14:51 494K
20260420T12Z_MSC_RDPS_SpecificHumidity_AGL-80m_RLatLon0.09_PT030H.grib2 2026-04-20 14:51 491K
20260420T12Z_MSC_RDPS_SpecificHumidity_IsbL-0001_RLatLon0.09_PT030H.grib2 2026-04-20 14:51 328K
20260420T12Z_MSC_RDPS_SpecificHumidity_IsbL-0005_RLatLon0.09_PT030H.grib2 2026-04-20 14:51 443K
20260420T12Z_MSC_RDPS_SpecificHumidity_IsbL-0010_RLatLon0.09_PT030H.grib2 2026-04-20 14:51 380K
20260420T12Z_MSC_RDPS_SpecificHumidity_IsbL-0020_RLatLon0.09_PT030H.grib2 2026-04-20 14:51 376K
20260420T12Z_MSC_RDPS_SpecificHumidity_IsbL-0030_RLatLon0.09_PT030H.grib2 2026-04-20 14:51 478K
20260420T12Z_MSC_RDPS_SpecificHumidity_IsbL-0050_RLatLon0.09_PT030H.grib2 2026-04-20 14:51 472K
20260420T12Z_MSC_RDPS_SpecificHumidity_IsbL-0100_RLatLon0.09_PT030H.grib2 2026-04-20 14:51 521K
20260420T12Z_MSC_RDPS_SpecificHumidity_IsbL-0150_RLatLon0.09_PT030H.grib2 2026-04-20 14:51 550K
20260420T12Z_MSC_RDPS_SpecificHumidity_IsbL-0175_RLatLon0.09_PT030H.grib2 2026-04-20 14:51 532K
20260420T12Z_MSC_RDPS_SpecificHumidity_IsbL-0200_RLatLon0.09_PT030H.grib2 2026-04-20 14:51 555K
20260420T12Z_MSC_RDPS_SpecificHumidity_IsbL-0225_RLatLon0.09_PT030H.grib2 2026-04-20 14:51 558K
20260420T12Z_MSC_RDPS_SpecificHumidity_IsbL-0250_RLatLon0.09_PT030H.grib2 2026-04-20 14:51 555K
20260420T12Z_MSC_RDPS_SpecificHumidity_IsbL-0275_RLatLon0.09_PT030H.grib2 2026-04-20 14:51 469K
20260420T12Z_MSC_RDPS_SpecificHumidity_IsbL-0300_RLatLon0.09_PT030H.grib2 2026-04-20 14:51 540K
20260420T12Z_MSC_RDPS_SpecificHumidity_IsbL-0350_RLatLon0.09_PT030H.grib2 2026-04-20 14:51 533K
20260420T12Z_MSC_RDPS_SpecificHumidity_IsbL-0400_RLatLon0.09_PT030H.grib2 2026-04-20 14:51 521K
20260420T12Z_MSC_RDPS_SpecificHumidity_IsbL-0450_RLatLon0.09_PT030H.grib2 2026-04-20 14:51 577K
20260420T12Z_MSC_RDPS_SpecificHumidity_IsbL-0500_RLatLon0.09_PT030H.grib2 2026-04-20 14:51 520K
20260420T12Z_MSC_RDPS_SpecificHumidity_IsbL-0550_RLatLon0.09_PT030H.grib2 2026-04-20 14:51 584K
20260420T12Z_MSC_RDPS_SpecificHumidity_IsbL-0600_RLatLon0.09_PT030H.grib2 2026-04-20 14:51 652K
20260420T12Z_MSC_RDPS_SpecificHumidity_IsbL-0650_RLatLon0.09_PT030H.grib2 2026-04-20 14:51 558K
20260420T12Z_MSC_RDPS_SpecificHumidity_IsbL-0700_RLatLon0.09_PT030H.grib2 2026-04-20 14:51 593K
20260420T12Z_MSC_RDPS_SpecificHumidity_IsbL-0750_RLatLon0.09_PT030H.grib2 2026-04-20 14:51 647K
20260420T12Z_MSC_RDPS_SpecificHumidity_IsbL-0800_RLatLon0.09_PT030H.grib2 2026-04-20 14:51 735K
20260420T12Z_MSC_RDPS_SpecificHumidity_IsbL-0850_RLatLon0.09_PT030H.grib2 2026-04-20 14:51 807K
20260420T12Z_MSC_RDPS_SpecificHumidity_IsbL-0875_RLatLon0.09_PT030H.grib2 2026-04-20 14:51 822K
20260420T12Z_MSC_RDPS_SpecificHumidity_IsbL-0900_RLatLon0.09_PT030H.grib2 2026-04-20 14:51 829K
20260420T12Z_MSC_RDPS_SpecificHumidity_IsbL-0925_RLatLon0.09_PT030H.grib2 2026-04-20 14:51 690K
20260420T12Z_MSC_RDPS_SpecificHumidity_IsbL-0950_RLatLon0.09_PT030H.grib2 2026-04-20 14:51 692K
20260420T12Z_MSC_RDPS_SpecificHumidity_IsbL-0970_RLatLon0.09_PT030H.grib2 2026-04-20 14:51 691K
20260420T12Z_MSC_RDPS_SpecificHumidity_IsbL-0985_RLatLon0.09_PT030H.grib2 2026-04-20 14:51 685K
20260420T12Z_MSC_RDPS_SpecificHumidity_IsbL-1000_RLatLon0.09_PT030H.grib2 2026-04-20 14:51 677K
20260420T12Z_MSC_RDPS_SpecificHumidity_IsbL-1015_RLatLon0.09_PT030H.grib2 2026-04-20 14:51 668K
20260420T12Z_MSC_RDPS_SpecificHumidity_Sfc_RLatLon0.09_PT030H.grib2 2026-04-20 14:51 339K
20260420T12Z_MSC_RDPS_StormRelativeHelicity_EtaL-10000_RLatLon0.09_PT030H.grib2 2026-04-20 14:51 1.1M
20260420T12Z_MSC_RDPS_StormSeverityIndex_EtaL-10000_RLatLon0.09_PT030H.grib2 2026-04-20 14:51 1.2M
20260420T12Z_MSC_RDPS_Thickness_IsbL-0850to0700_RLatLon0.09_PT030H.grib2 2026-04-20 14:51 183K
20260420T12Z_MSC_RDPS_Thickness_IsbL-1000to0500_RLatLon0.09_PT030H.grib2 2026-04-20 14:51 207K
20260420T12Z_MSC_RDPS_Thickness_IsbL-1000to0850_RLatLon0.09_PT030H.grib2 2026-04-20 14:51 194K
20260420T12Z_MSC_RDPS_TotalCloudCover_Sfc_RLatLon0.09_PT030H.grib2 2026-04-20 14:51 648K
20260420T12Z_MSC_RDPS_TotalTotalsIndex_Sfc_RLatLon0.09_PT030H.grib2 2026-04-20 14:51 2.4M
20260420T12Z_MSC_RDPS_UVIndex-ClearSky-Max24h_Sfc_RLatLon0.09_PT030H.grib2 2026-04-20 14:51 290K
20260420T12Z_MSC_RDPS_UVIndex-ClearSky_Sfc_RLatLon0.09_PT030H.grib2 2026-04-20 14:51 222K
20260420T12Z_MSC_RDPS_UVIndex-Max24h_Sfc_RLatLon0.09_PT030H.grib2 2026-04-20 14:51 642K
20260420T12Z_MSC_RDPS_UVIndex_Sfc_RLatLon0.09_PT030H.grib2 2026-04-20 14:51 518K
20260420T12Z_MSC_RDPS_UpwardLongwaveRadiationFlux_NTAtm_RLatLon0.09_PT030H.grib2 2026-04-20 14:51 494K
20260420T12Z_MSC_RDPS_UpwardShortwaveRadiationFlux_NTAtm_RLatLon0.09_PT030H.grib2 2026-04-20 14:51 547K
20260420T12Z_MSC_RDPS_VerticalVelocity_IsbL-0250_RLatLon0.09_PT030H.grib2 2026-04-20 14:51 589K
20260420T12Z_MSC_RDPS_VerticalVelocity_IsbL-0500_RLatLon0.09_PT030H.grib2 2026-04-20 14:51 558K
20260420T12Z_MSC_RDPS_VerticalVelocity_IsbL-0700_RLatLon0.09_PT030H.grib2 2026-04-20 14:51 571K
20260420T12Z_MSC_RDPS_VerticalVelocity_IsbL-0850_RLatLon0.09_PT030H.grib2 2026-04-20 14:51 709K
20260420T12Z_MSC_RDPS_VerticalWindShear_EtaL-6500_RLatLon0.09_PT030H.grib2 2026-04-20 14:51 1.2M
20260420T12Z_MSC_RDPS_WindChill_Sfc_RLatLon0.09_PT030H.grib2 2026-04-20 14:51 1.3M
20260420T12Z_MSC_RDPS_WindDir_AGL-10m_RLatLon0.09_PT030H.grib2 2026-04-20 14:51 1.0M
20260420T12Z_MSC_RDPS_WindDir_AGL-120m_RLatLon0.09_PT030H.grib2 2026-04-20 14:51 621K
20260420T12Z_MSC_RDPS_WindDir_AGL-40m_RLatLon0.09_PT030H.grib2 2026-04-20 14:51 639K
20260420T12Z_MSC_RDPS_WindDir_AGL-80m_RLatLon0.09_PT030H.grib2 2026-04-20 14:51 628K
20260420T12Z_MSC_RDPS_WindDir_IsbL-0001_RLatLon0.09_PT030H.grib2 2026-04-20 14:51 255K
20260420T12Z_MSC_RDPS_WindDir_IsbL-0005_RLatLon0.09_PT030H.grib2 2026-04-20 14:51 359K
20260420T12Z_MSC_RDPS_WindDir_IsbL-0010_RLatLon0.09_PT030H.grib2 2026-04-20 14:51 382K
20260420T12Z_MSC_RDPS_WindDir_IsbL-0020_RLatLon0.09_PT030H.grib2 2026-04-20 14:51 390K
20260420T12Z_MSC_RDPS_WindDir_IsbL-0030_RLatLon0.09_PT030H.grib2 2026-04-20 14:51 409K
20260420T12Z_MSC_RDPS_WindDir_IsbL-0050_RLatLon0.09_PT030H.grib2 2026-04-20 14:51 433K
20260420T12Z_MSC_RDPS_WindDir_IsbL-0100_RLatLon0.09_PT030H.grib2 2026-04-20 14:51 420K
20260420T12Z_MSC_RDPS_WindDir_IsbL-0150_RLatLon0.09_PT030H.grib2 2026-04-20 14:51 421K
20260420T12Z_MSC_RDPS_WindDir_IsbL-0175_RLatLon0.09_PT030H.grib2 2026-04-20 14:51 438K
20260420T12Z_MSC_RDPS_WindDir_IsbL-0200_RLatLon0.09_PT030H.grib2 2026-04-20 14:51 450K
20260420T12Z_MSC_RDPS_WindDir_IsbL-0225_RLatLon0.09_PT030H.grib2 2026-04-20 14:51 443K
20260420T12Z_MSC_RDPS_WindDir_IsbL-0250_RLatLon0.09_PT030H.grib2 2026-04-20 14:51 441K
20260420T12Z_MSC_RDPS_WindDir_IsbL-0275_RLatLon0.09_PT030H.grib2 2026-04-20 14:51 464K
20260420T12Z_MSC_RDPS_WindDir_IsbL-0300_RLatLon0.09_PT030H.grib2 2026-04-20 14:51 459K
20260420T12Z_MSC_RDPS_WindDir_IsbL-0350_RLatLon0.09_PT030H.grib2 2026-04-20 14:51 478K
20260420T12Z_MSC_RDPS_WindDir_IsbL-0400_RLatLon0.09_PT030H.grib2 2026-04-20 14:51 495K
20260420T12Z_MSC_RDPS_WindDir_IsbL-0450_RLatLon0.09_PT030H.grib2 2026-04-20 14:51 515K
20260420T12Z_MSC_RDPS_WindDir_IsbL-0500_RLatLon0.09_PT030H.grib2 2026-04-20 14:51 537K
20260420T12Z_MSC_RDPS_WindDir_IsbL-0550_RLatLon0.09_PT030H.grib2 2026-04-20 14:51 559K
20260420T12Z_MSC_RDPS_WindDir_IsbL-0600_RLatLon0.09_PT030H.grib2 2026-04-20 14:51 582K
20260420T12Z_MSC_RDPS_WindDir_IsbL-0650_RLatLon0.09_PT030H.grib2 2026-04-20 14:51 620K
20260420T12Z_MSC_RDPS_WindDir_IsbL-0700_RLatLon0.09_PT030H.grib2 2026-04-20 14:51 661K
20260420T12Z_MSC_RDPS_WindDir_IsbL-0750_RLatLon0.09_PT030H.grib2 2026-04-20 14:51 713K
20260420T12Z_MSC_RDPS_WindDir_IsbL-0800_RLatLon0.09_PT030H.grib2 2026-04-20 14:51 789K
20260420T12Z_MSC_RDPS_WindDir_IsbL-0850_RLatLon0.09_PT030H.grib2 2026-04-20 14:51 870K
20260420T12Z_MSC_RDPS_WindDir_IsbL-0875_RLatLon0.09_PT030H.grib2 2026-04-20 14:51 898K
20260420T12Z_MSC_RDPS_WindDir_IsbL-0900_RLatLon0.09_PT030H.grib2 2026-04-20 14:51 913K
20260420T12Z_MSC_RDPS_WindDir_IsbL-0925_RLatLon0.09_PT030H.grib2 2026-04-20 14:51 916K
20260420T12Z_MSC_RDPS_WindDir_IsbL-0950_RLatLon0.09_PT030H.grib2 2026-04-20 14:51 917K
20260420T12Z_MSC_RDPS_WindDir_IsbL-0970_RLatLon0.09_PT030H.grib2 2026-04-20 14:51 923K
20260420T12Z_MSC_RDPS_WindDir_IsbL-0985_RLatLon0.09_PT030H.grib2 2026-04-20 14:51 934K
20260420T12Z_MSC_RDPS_WindDir_IsbL-1000_RLatLon0.09_PT030H.grib2 2026-04-20 14:51 949K
20260420T12Z_MSC_RDPS_WindDir_IsbL-1015_RLatLon0.09_PT030H.grib2 2026-04-20 14:51 964K
20260420T12Z_MSC_RDPS_WindGust-Max_AGL-10m_RLatLon0.09_PT030H.grib2 2026-04-20 14:51 946K
20260420T12Z_MSC_RDPS_WindGust-Min_AGL-10m_RLatLon0.09_PT030H.grib2 2026-04-20 14:51 1.0M
20260420T12Z_MSC_RDPS_WindGust_AGL-10m_RLatLon0.09_PT030H.grib2 2026-04-20 14:51 1.0M
20260420T12Z_MSC_RDPS_WindSpeed_AGL-10m_RLatLon0.09_PT030H.grib2 2026-04-20 14:51 851K
20260420T12Z_MSC_RDPS_WindSpeed_AGL-120m_RLatLon0.09_PT030H.grib2 2026-04-20 14:51 542K
20260420T12Z_MSC_RDPS_WindSpeed_AGL-40m_RLatLon0.09_PT030H.grib2 2026-04-20 14:51 545K
20260420T12Z_MSC_RDPS_WindSpeed_AGL-80m_RLatLon0.09_PT030H.grib2 2026-04-20 14:51 543K
20260420T12Z_MSC_RDPS_WindSpeed_IsbL-0001_RLatLon0.09_PT030H.grib2 2026-04-20 14:51 247K
20260420T12Z_MSC_RDPS_WindSpeed_IsbL-0005_RLatLon0.09_PT030H.grib2 2026-04-20 14:51 297K
20260420T12Z_MSC_RDPS_WindSpeed_IsbL-0010_RLatLon0.09_PT030H.grib2 2026-04-20 14:51 311K
20260420T12Z_MSC_RDPS_WindSpeed_IsbL-0020_RLatLon0.09_PT030H.grib2 2026-04-20 14:51 332K
20260420T12Z_MSC_RDPS_WindSpeed_IsbL-0030_RLatLon0.09_PT030H.grib2 2026-04-20 14:51 332K
20260420T12Z_MSC_RDPS_WindSpeed_IsbL-0050_RLatLon0.09_PT030H.grib2 2026-04-20 14:51 480K
20260420T12Z_MSC_RDPS_WindSpeed_IsbL-0100_RLatLon0.09_PT030H.grib2 2026-04-20 14:51 492K
20260420T12Z_MSC_RDPS_WindSpeed_IsbL-0150_RLatLon0.09_PT030H.grib2 2026-04-20 14:51 383K
20260420T12Z_MSC_RDPS_WindSpeed_IsbL-0175_RLatLon0.09_PT030H.grib2 2026-04-20 14:51 405K
20260420T12Z_MSC_RDPS_WindSpeed_IsbL-0200_RLatLon0.09_PT030H.grib2 2026-04-20 14:51 423K
20260420T12Z_MSC_RDPS_WindSpeed_IsbL-0225_RLatLon0.09_PT030H.grib2 2026-04-20 14:51 427K
20260420T12Z_MSC_RDPS_WindSpeed_IsbL-0250_RLatLon0.09_PT030H.grib2 2026-04-20 14:51 448K
20260420T12Z_MSC_RDPS_WindSpeed_IsbL-0275_RLatLon0.09_PT030H.grib2 2026-04-20 14:51 462K
20260420T12Z_MSC_RDPS_WindSpeed_IsbL-0300_RLatLon0.09_PT030H.grib2 2026-04-20 14:51 457K
20260420T12Z_MSC_RDPS_WindSpeed_IsbL-0350_RLatLon0.09_PT030H.grib2 2026-04-20 14:51 467K
20260420T12Z_MSC_RDPS_WindSpeed_IsbL-0400_RLatLon0.09_PT030H.grib2 2026-04-20 14:51 473K
20260420T12Z_MSC_RDPS_WindSpeed_IsbL-0450_RLatLon0.09_PT030H.grib2 2026-04-20 14:51 460K
20260420T12Z_MSC_RDPS_WindSpeed_IsbL-0500_RLatLon0.09_PT030H.grib2 2026-04-20 14:51 466K
20260420T12Z_MSC_RDPS_WindSpeed_IsbL-0550_RLatLon0.09_PT030H.grib2 2026-04-20 14:51 589K
20260420T12Z_MSC_RDPS_WindSpeed_IsbL-0600_RLatLon0.09_PT030H.grib2 2026-04-20 14:51 598K
20260420T12Z_MSC_RDPS_WindSpeed_IsbL-0650_RLatLon0.09_PT030H.grib2 2026-04-20 14:51 617K
20260420T12Z_MSC_RDPS_WindSpeed_IsbL-0700_RLatLon0.09_PT030H.grib2 2026-04-20 14:51 641K
20260420T12Z_MSC_RDPS_WindSpeed_IsbL-0750_RLatLon0.09_PT030H.grib2 2026-04-20 14:51 673K
20260420T12Z_MSC_RDPS_WindSpeed_IsbL-0800_RLatLon0.09_PT030H.grib2 2026-04-20 14:51 768K
20260420T12Z_MSC_RDPS_WindSpeed_IsbL-0850_RLatLon0.09_PT030H.grib2 2026-04-20 14:51 827K
20260420T12Z_MSC_RDPS_WindSpeed_IsbL-0875_RLatLon0.09_PT030H.grib2 2026-04-20 14:51 846K
20260420T12Z_MSC_RDPS_WindSpeed_IsbL-0900_RLatLon0.09_PT030H.grib2 2026-04-20 14:51 856K
20260420T12Z_MSC_RDPS_WindSpeed_IsbL-0925_RLatLon0.09_PT030H.grib2 2026-04-20 14:51 862K
20260420T12Z_MSC_RDPS_WindSpeed_IsbL-0950_RLatLon0.09_PT030H.grib2 2026-04-20 14:51 862K
20260420T12Z_MSC_RDPS_WindSpeed_IsbL-0970_RLatLon0.09_PT030H.grib2 2026-04-20 14:51 862K
20260420T12Z_MSC_RDPS_WindSpeed_IsbL-0985_RLatLon0.09_PT030H.grib2 2026-04-20 14:51 861K
20260420T12Z_MSC_RDPS_WindSpeed_IsbL-1000_RLatLon0.09_PT030H.grib2 2026-04-20 14:51 859K
20260420T12Z_MSC_RDPS_WindSpeed_IsbL-1015_RLatLon0.09_PT030H.grib2 2026-04-20 14:51 853K
20260420T12Z_MSC_RDPS_WindU_AGL-10m_RLatLon0.09_PT030H.grib2 2026-04-20 14:51 439K
20260420T12Z_MSC_RDPS_WindU_AGL-120m_RLatLon0.09_PT030H.grib2 2026-04-20 14:51 422K
20260420T12Z_MSC_RDPS_WindU_AGL-40m_RLatLon0.09_PT030H.grib2 2026-04-20 14:51 541K
20260420T12Z_MSC_RDPS_WindU_AGL-80m_RLatLon0.09_PT030H.grib2 2026-04-20 14:51 540K
20260420T12Z_MSC_RDPS_WindU_IsbL-0001_RLatLon0.09_PT030H.grib2 2026-04-20 14:51 288K
20260420T12Z_MSC_RDPS_WindU_IsbL-0005_RLatLon0.09_PT030H.grib2 2026-04-20 14:51 332K
20260420T12Z_MSC_RDPS_WindU_IsbL-0010_RLatLon0.09_PT030H.grib2 2026-04-20 14:51 345K
20260420T12Z_MSC_RDPS_WindU_IsbL-0020_RLatLon0.09_PT030H.grib2 2026-04-20 14:51 364K
20260420T12Z_MSC_RDPS_WindU_IsbL-0030_RLatLon0.09_PT030H.grib2 2026-04-20 14:51 332K
20260420T12Z_MSC_RDPS_WindU_IsbL-0050_RLatLon0.09_PT030H.grib2 2026-04-20 14:51 366K
20260420T12Z_MSC_RDPS_WindU_IsbL-0100_RLatLon0.09_PT030H.grib2 2026-04-20 14:51 449K
20260420T12Z_MSC_RDPS_WindU_IsbL-0150_RLatLon0.09_PT030H.grib2 2026-04-20 14:51 400K
20260420T12Z_MSC_RDPS_WindU_IsbL-0175_RLatLon0.09_PT030H.grib2 2026-04-20 14:51 422K
20260420T12Z_MSC_RDPS_WindU_IsbL-0200_RLatLon0.09_PT030H.grib2 2026-04-20 14:51 437K
20260420T12Z_MSC_RDPS_WindU_IsbL-0225_RLatLon0.09_PT030H.grib2 2026-04-20 14:51 440K
20260420T12Z_MSC_RDPS_WindU_IsbL-0250_RLatLon0.09_PT030H.grib2 2026-04-20 14:51 340K
20260420T12Z_MSC_RDPS_WindU_IsbL-0275_RLatLon0.09_PT030H.grib2 2026-04-20 14:51 351K
20260420T12Z_MSC_RDPS_WindU_IsbL-0300_RLatLon0.09_PT030H.grib2 2026-04-20 14:51 347K
20260420T12Z_MSC_RDPS_WindU_IsbL-0350_RLatLon0.09_PT030H.grib2 2026-04-20 14:51 354K
20260420T12Z_MSC_RDPS_WindU_IsbL-0400_RLatLon0.09_PT030H.grib2 2026-04-20 14:51 358K
20260420T12Z_MSC_RDPS_WindU_IsbL-0450_RLatLon0.09_PT030H.grib2 2026-04-20 14:51 465K
20260420T12Z_MSC_RDPS_WindU_IsbL-0500_RLatLon0.09_PT030H.grib2 2026-04-20 14:51 469K
20260420T12Z_MSC_RDPS_WindU_IsbL-0550_RLatLon0.09_PT030H.grib2 2026-04-20 14:51 474K
20260420T12Z_MSC_RDPS_WindU_IsbL-0600_RLatLon0.09_PT030H.grib2 2026-04-20 14:51 482K
20260420T12Z_MSC_RDPS_WindU_IsbL-0650_RLatLon0.09_PT030H.grib2 2026-04-20 14:51 500K
20260420T12Z_MSC_RDPS_WindU_IsbL-0700_RLatLon0.09_PT030H.grib2 2026-04-20 14:51 520K
20260420T12Z_MSC_RDPS_WindU_IsbL-0750_RLatLon0.09_PT030H.grib2 2026-04-20 14:51 548K
20260420T12Z_MSC_RDPS_WindU_IsbL-0800_RLatLon0.09_PT030H.grib2 2026-04-20 14:51 580K
20260420T12Z_MSC_RDPS_WindU_IsbL-0850_RLatLon0.09_PT030H.grib2 2026-04-20 14:51 633K
20260420T12Z_MSC_RDPS_WindU_IsbL-0875_RLatLon0.09_PT030H.grib2 2026-04-20 14:51 650K
20260420T12Z_MSC_RDPS_WindU_IsbL-0900_RLatLon0.09_PT030H.grib2 2026-04-20 14:51 657K
20260420T12Z_MSC_RDPS_WindU_IsbL-0925_RLatLon0.09_PT030H.grib2 2026-04-20 14:51 660K
20260420T12Z_MSC_RDPS_WindU_IsbL-0950_RLatLon0.09_PT030H.grib2 2026-04-20 14:51 657K
20260420T12Z_MSC_RDPS_WindU_IsbL-0970_RLatLon0.09_PT030H.grib2 2026-04-20 14:51 659K
20260420T12Z_MSC_RDPS_WindU_IsbL-0985_RLatLon0.09_PT030H.grib2 2026-04-20 14:51 800K
20260420T12Z_MSC_RDPS_WindU_IsbL-1000_RLatLon0.09_PT030H.grib2 2026-04-20 14:51 798K
20260420T12Z_MSC_RDPS_WindU_IsbL-1015_RLatLon0.09_PT030H.grib2 2026-04-20 14:51 793K
20260420T12Z_MSC_RDPS_WindV_AGL-10m_RLatLon0.09_PT030H.grib2 2026-04-20 14:51 440K
20260420T12Z_MSC_RDPS_WindV_AGL-120m_RLatLon0.09_PT030H.grib2 2026-04-20 14:51 422K
20260420T12Z_MSC_RDPS_WindV_AGL-40m_RLatLon0.09_PT030H.grib2 2026-04-20 14:51 543K
20260420T12Z_MSC_RDPS_WindV_AGL-80m_RLatLon0.09_PT030H.grib2 2026-04-20 14:51 423K
20260420T12Z_MSC_RDPS_WindV_IsbL-0001_RLatLon0.09_PT030H.grib2 2026-04-20 14:51 288K
20260420T12Z_MSC_RDPS_WindV_IsbL-0005_RLatLon0.09_PT030H.grib2 2026-04-20 14:51 329K
20260420T12Z_MSC_RDPS_WindV_IsbL-0010_RLatLon0.09_PT030H.grib2 2026-04-20 14:51 343K
20260420T12Z_MSC_RDPS_WindV_IsbL-0020_RLatLon0.09_PT030H.grib2 2026-04-20 14:51 365K
20260420T12Z_MSC_RDPS_WindV_IsbL-0030_RLatLon0.09_PT030H.grib2 2026-04-20 14:51 329K
20260420T12Z_MSC_RDPS_WindV_IsbL-0050_RLatLon0.09_PT030H.grib2 2026-04-20 14:51 365K
20260420T12Z_MSC_RDPS_WindV_IsbL-0100_RLatLon0.09_PT030H.grib2 2026-04-20 14:51 343K
20260420T12Z_MSC_RDPS_WindV_IsbL-0150_RLatLon0.09_PT030H.grib2 2026-04-20 14:51 395K
20260420T12Z_MSC_RDPS_WindV_IsbL-0175_RLatLon0.09_PT030H.grib2 2026-04-20 14:51 417K
20260420T12Z_MSC_RDPS_WindV_IsbL-0200_RLatLon0.09_PT030H.grib2 2026-04-20 14:51 336K
20260420T12Z_MSC_RDPS_WindV_IsbL-0225_RLatLon0.09_PT030H.grib2 2026-04-20 14:51 337K
20260420T12Z_MSC_RDPS_WindV_IsbL-0250_RLatLon0.09_PT030H.grib2 2026-04-20 14:51 338K
20260420T12Z_MSC_RDPS_WindV_IsbL-0275_RLatLon0.09_PT030H.grib2 2026-04-20 14:51 374K
20260420T12Z_MSC_RDPS_WindV_IsbL-0300_RLatLon0.09_PT030H.grib2 2026-04-20 14:51 370K
20260420T12Z_MSC_RDPS_WindV_IsbL-0350_RLatLon0.09_PT030H.grib2 2026-04-20 14:51 377K
20260420T12Z_MSC_RDPS_WindV_IsbL-0400_RLatLon0.09_PT030H.grib2 2026-04-20 14:51 358K
20260420T12Z_MSC_RDPS_WindV_IsbL-0450_RLatLon0.09_PT030H.grib2 2026-04-20 14:51 362K
20260420T12Z_MSC_RDPS_WindV_IsbL-0500_RLatLon0.09_PT030H.grib2 2026-04-20 14:51 471K
20260420T12Z_MSC_RDPS_WindV_IsbL-0550_RLatLon0.09_PT030H.grib2 2026-04-20 14:51 474K
20260420T12Z_MSC_RDPS_WindV_IsbL-0600_RLatLon0.09_PT030H.grib2 2026-04-20 14:51 482K
20260420T12Z_MSC_RDPS_WindV_IsbL-0650_RLatLon0.09_PT030H.grib2 2026-04-20 14:51 498K
20260420T12Z_MSC_RDPS_WindV_IsbL-0700_RLatLon0.09_PT030H.grib2 2026-04-20 14:51 519K
20260420T12Z_MSC_RDPS_WindV_IsbL-0750_RLatLon0.09_PT030H.grib2 2026-04-20 14:51 545K
20260420T12Z_MSC_RDPS_WindV_IsbL-0800_RLatLon0.09_PT030H.grib2 2026-04-20 14:51 578K
20260420T12Z_MSC_RDPS_WindV_IsbL-0850_RLatLon0.09_PT030H.grib2 2026-04-20 14:51 630K
20260420T12Z_MSC_RDPS_WindV_IsbL-0875_RLatLon0.09_PT030H.grib2 2026-04-20 14:51 647K
20260420T12Z_MSC_RDPS_WindV_IsbL-0900_RLatLon0.09_PT030H.grib2 2026-04-20 14:51 655K
20260420T12Z_MSC_RDPS_WindV_IsbL-0925_RLatLon0.09_PT030H.grib2 2026-04-20 14:51 659K
20260420T12Z_MSC_RDPS_WindV_IsbL-0950_RLatLon0.09_PT030H.grib2 2026-04-20 14:51 657K
20260420T12Z_MSC_RDPS_WindV_IsbL-0970_RLatLon0.09_PT030H.grib2 2026-04-20 14:51 659K
20260420T12Z_MSC_RDPS_WindV_IsbL-0985_RLatLon0.09_PT030H.grib2 2026-04-20 14:51 659K
20260420T12Z_MSC_RDPS_WindV_IsbL-1000_RLatLon0.09_PT030H.grib2 2026-04-20 14:51 799K
20260420T12Z_MSC_RDPS_WindV_IsbL-1015_RLatLon0.09_PT030H.grib2 2026-04-20 14:51 795K